Regional Weather Roundup
Issued by NWS

Home | Current Version | Previous Version | Graphics & Text | Print | Product List | Glossary On
Versions: 1 2 3 4 5 6 7 8 9 10 11 12 13 14 15 16 17 18 19 20 21 22 23 24 25 26 27 28 29 30 31 32 33 34 35 36 37 38 39 40 41 42 43 44 45 46 47 48 49 50
873
ASUS43 KIND 261609
RWRIN

WEATHER ROUNDUP FOR INDIANA
NATIONAL WEATHER SERVICE INDIANAPOLIS IN
1200 PM EDT FRI AUG 26 2016

NOTE: "FAIR" INDICATES FEW OR NO CLOUDS BELOW 12,000 FEET WITH NO
SIGNIFICANT WEATHER AND/OR OBSTRUCTIONS TO VISIBILITY.

* - STATION DOES NOT REPORT WEATHER SUCH AS PRECIPITATION OR FOG.

+ - STATION NOT QUALITY CONTROLLED BY THE NATIONAL WEATHER SERVICE.
    USE DATA WITH CAUTION...ESPECIALLY DEWPOINT AND RELATIVE
    HUMIDITY OBSERVATIONS.

INZ001>003-010>013-019-020-261700-
NORTHWEST INDIANA

CITY           SKY/WX    TMP DP  RH WIND       PRES   REMARKS
GARY /AIRPORT/ MOSUNNY   77  68  73 N8        30.18S
KNOX *+        SUNNY     77  45  31 E3        30.17S
LA PORTE +     MOSUNNY   80  67  65 E3        30.19S
MICHIGAN CITY+ PTSUNNY   77  66  69 MISG      30.18F
MONTICELLO +   SUNNY     78  64  60 E5        30.16R
RENSSELAER +   MOSUNNY   79  68  69 NE3       30.17S
VALPARAISO     SUNNY     79  66  64 VRB5      30.18S

$$

LMZ046-743>745-261700-
SOUTHERN LAKE MICHIGAN

STATION/POSITION TIME  TEMP    WIND        PRES    WAVE
                       AIR SEA DIR/SP/G            HT
                 (UTC) (F)     (DEG/KT/KT) (MB)    (FT)
BURNS HARBOR     1500   74      30/  7/  8 1022.0R
MICHIGAN CITY    1500   73      10/  6/  6   N/A
5NW MICH CITY    1600   74 75   20/  4/  6   N/A     2

$$

INZ004-005-014>016-021>024-261700-
NORTH CENTRAL INDIANA

CITY           SKY/WX    TMP DP  RH WIND       PRES   REMARKS
ELKHART        MOSUNNY   77  64  65 CALM      30.18S
GOSHEN         SUNNY     78  63  59 NE3       30.18S
LOGANSPORT +   SUNNY     79  68  69 E7        30.17S
PERU/GRISSOM   SUNNY     79  69  70 E7        30.15S
ROCHESTER +    SUNNY     81  70  69 E5        30.17S
SOUTH BEND     SUNNY     78  65  63 VRB3      30.18S
WARSAW +       PTSUNNY   77  70  78 CALM      30.18S

$$

INZ006>009-017-018-025>027-261700-
NORTHEAST INDIANA

CITY           SKY/WX    TMP DP  RH WIND       PRES   REMARKS
ANGOLA *+      SUNNY     79  64  61 N3        30.18S
AUBURN +       SUNNY     79  59  50 CALM      30.19S
FORT WAYNE     MOSUNNY   80  55  42 E7        30.18R
HUNTINGTON +   SUNNY    N/A N/A N/A E5        30.17S

$$

INZ028-029-035-036-043>045-051>053-261700-
WEST CENTRAL INDIANA

CITY           SKY/WX    TMP DP  RH WIND       PRES   REMARKS
CRAWFORDSVL +  PTSUNNY   80  74  82 SE3       30.15S
GREENCASTLE +  SUNNY     81  77  89 SE7       30.15S
LAFAYETTE      MOSUNNY   78  72  81 VRB3      30.14S
TERRE HAUTE    SUNNY     85  74  69 SE7       30.13S

$$

INZ030>032-037>040-046>048-054>057-064-065-261700-
CENTRAL INDIANA

CITY           SKY/WX    TMP DP  RH WIND       PRES   REMARKS
ANDERSON       PTSUNNY   81  73  78 CALM      30.16R
COLUMBUS       SUNNY     82  77  83 E6        30.15F
INDIANAPOLIS   MOSUNNY   84  69  60 SE6       30.13F
-EAGLE CREEK   SUNNY     83  71  67 VRB3      30.14S
MARION +       PTSUNNY   77  71  81 CALM      30.17F
MT COMFORT *+  SUNNY     81  73  78 S6        30.16S
SHELBYVILLE    SUNNY     84  69  60 SE6       30.14F
ZIONSVILLE +   MOSUNNY   80  74  81 CALM      30.16S

$$

INZ033-034-041-042-049-050-058-059-261700-
EAST CENTRAL INDIANA

CITY           SKY/WX    TMP DP  RH WIND       PRES   REMARKS
MUNCIE         MOSUNNY   81  74  79 VRB3      30.16F

$$

INZ060-061-067>069-081>083-085>088-261700-
SOUTHWEST INDIANA

CITY           SKY/WX    TMP DP  RH WIND       PRES   REMARKS
EVANSVILLE     MOSUNNY   88  74  63 CALM      30.13S HX  96
HUNTINGBURG *+ SUNNY     88  73  62 SE3       30.14S HX  96
WASHINGTON +   SUNNY     87  76  69 MISG      30.12F HX  97

$$

INZ062-063-066-070>080-084-089>092-261700-
SOUTH CENTRAL AND SOUTHEAST INDIANA

CITY           SKY/WX    TMP DP  RH WIND       PRES   REMARKS
BLOOMINGTON    SUNNY     86  73  65 SE5       30.15R
MADISON *+     SUNNY     86  70  58 S3        30.17F

$$





USA.gov is the U.S. government's official web portal to all federal, state and local government web resources and services.